TOM63J EGFF-LGKR

Flight info

Callsign TOM63J
Flight time N/A
Altitude 23000
Route LEKCI DCT YORQI L607 NUCHU/N0453F350 L607 KONAN DCT KOK DCT SISGA DCT KOMOB DCT PITES DCT EDISA DCT PICWI DCT UTABA DCT BEMKI DCT ELMEM DCT DIRAB DCT VESAL DCT PEVAL DCT EBITA DCT SPL DCT TIGRA
Aircraft B738/M-SDFGHIJ1RWXYZ/LB1

Departure

Time 2026-05-04 09:10
Airport Cardiff International Airport (EGFF)

Arrival

Time N/A
Airport Corfu Ioannis Kapodistrias International Airport (LGKR)
Time Latitude Longitude Altitude Speed Heading
2026-05-04 08:40 51.39807 -3.33934 0 ft 0 kts 83°
2026-05-04 09:01 51.39753 -3.34038 221 ft 0 kts 297°
2026-05-04 09:04 51.39759 -3.34056 220 ft 4 kts 297°
2026-05-04 09:04 51.39784 -3.34133 221 ft 11 kts 297°
2026-05-04 09:04 51.39828 -3.34273 222 ft 16 kts 297°
2026-05-04 09:05 51.39877 -3.34427 220 ft 15 kts 297°
2026-05-04 09:05 51.39924 -3.34575 222 ft 15 kts 297°
2026-05-04 09:05 51.39968 -3.34717 219 ft 14 kts 296°
2026-05-04 09:05 51.40011 -3.34852 224 ft 13 kts 296°
2026-05-04 09:06 51.40051 -3.34981 215 ft 13 kts 296°
2026-05-04 09:07 51.40096 -3.35691 219 ft 8 kts 320°
2026-05-04 09:08 51.40143 -3.35738 219 ft 8 kts 328°
2026-05-04 09:08 51.40148 -3.35805 224 ft 7 kts 217°
2026-05-04 09:08 51.40116 -3.35770 220 ft 6 kts 120°
2026-05-04 09:08 51.40109 -3.35747 220 ft 0 kts 117°
2026-05-04 09:09 51.40107 -3.35741 220 ft 9 kts 117°
2026-05-04 09:09 51.39954 -3.35264 214 ft 86 kts 117°
2026-05-04 09:09 51.39583 -3.34083 221 ft 149 kts 116°
2026-05-04 09:09 51.39057 -3.32416 667 ft 172 kts 114°
2026-05-04 09:10 51.38511 -3.30699 1555 ft 180 kts 114°
2026-05-04 09:10 51.37965 -3.28887 2340 ft 181 kts 114°
2026-05-04 09:10 51.37410 -3.27041 2946 ft 191 kts 114°
2026-05-04 09:10 51.36798 -3.25004 3145 ft 213 kts 115°
2026-05-04 09:11 51.36123 -3.22774 3418 ft 230 kts 115°
2026-05-04 09:11 51.35565 -3.20271 3632 ft 249 kts 94°
2026-05-04 09:11 51.35909 -3.17589 4251 ft 255 kts 62°
2026-05-04 09:11 51.36926 -3.15261 5036 ft 257 kts 54°
2026-05-04 09:12 51.37997 -3.12930 5708 ft 261 kts 55°
2026-05-04 09:12 51.39077 -3.10576 5971 ft 263 kts 55°
2026-05-04 09:14 51.44982 -2.92364 9196 ft 278 kts 79°
2026-05-04 09:14 51.45381 -2.89310 9866 ft 281 kts 79°
2026-05-04 09:14 51.45807 -2.86202 10360 ft 291 kts 79°
2026-05-04 09:14 51.46272 -2.82915 10495 ft 312 kts 78°
2026-05-04 09:15 51.46779 -2.79412 10646 ft 332 kts 78°
2026-05-04 09:15 51.47323 -2.75705 10840 ft 349 kts 78°
2026-05-04 09:15 51.47892 -2.71865 11287 ft 357 kts 78°
2026-05-04 09:15 51.48471 -2.67978 11904 ft 359 kts 78°
2026-05-04 09:17 51.51776 -2.35430 16197 ft 381 kts 99°
2026-05-04 09:18 51.51451 -2.31244 16685 ft 384 kts 98°
2026-05-04 09:18 51.51140 -2.26955 17178 ft 387 kts 98°
2026-05-04 09:18 51.50844 -2.22645 17676 ft 390 kts 97°
2026-05-04 09:18 51.50548 -2.18301 18169 ft 393 kts 98°
2026-05-04 09:19 51.50248 -2.13912 18602 ft 396 kts 98°
2026-05-04 09:19 51.49942 -2.09503 19001 ft 399 kts 98°
2026-05-04 09:19 51.49632 -2.05054 19401 ft 402 kts 98°
2026-05-04 09:19 51.49317 -2.00569 19789 ft 405 kts 98°
2026-05-04 09:20 51.48997 -1.96062 20169 ft 408 kts 98°
2026-05-04 09:20 51.48669 -1.91564 20531 ft 412 kts 98°
2026-05-04 09:20 51.48331 -1.86987 20897 ft 415 kts 98°
2026-05-04 09:20 51.47990 -1.82372 21251 ft 418 kts 99°
2026-05-04 09:21 51.47646 -1.77708 21613 ft 421 kts 99°
2026-05-04 09:21 51.47415 -1.74606 21846 ft 423 kts 99°
2026-05-04 09:21 51.46947 -1.68353 22298 ft 427 kts 99°
2026-05-04 09:21 51.46463 -1.63648 22622 ft 428 kts 104°
2026-05-04 09:22 51.45795 -1.58975 22939 ft 431 kts 106°
2026-05-04 09:22 51.45330 -1.55868 23170 ft 433 kts 106°
2026-05-04 09:22 51.44647 -1.51159 23490 ft 435 kts 105°
2026-05-04 09:22 51.43984 -1.46404 23779 ft 438 kts 105°
2026-05-04 09:23 51.43325 -1.41623 24080 ft 439 kts 105°
2026-05-04 09:23 51.42664 -1.36835 24393 ft 440 kts 105°
2026-05-04 09:23 51.41997 -1.32028 24691 ft 441 kts 105°
2026-05-04 09:23 51.41328 -1.27224 24971 ft 443 kts 105°
2026-05-04 09:25 51.38420 -0.92570 26707 ft 457 kts 97°
2026-05-04 09:25 51.38183 -0.87482 26920 ft 458 kts 98°
2026-05-04 09:26 51.37934 -0.82451 27151 ft 459 kts 98°
2026-05-04 09:26 51.37669 -0.77336 27378 ft 461 kts 98°
2026-05-04 09:26 51.37397 -0.72221 27587 ft 462 kts 98°
2026-05-04 09:26 51.37119 -0.67078 27788 ft 464 kts 99°
2026-05-04 09:27 51.36838 -0.61923 27979 ft 465 kts 99°
2026-05-04 09:27 51.36555 -0.56760 28176 ft 466 kts 99°
2026-05-04 09:27 51.36270 -0.51582 28359 ft 468 kts 99°
2026-05-04 09:27 51.35980 -0.46363 28533 ft 469 kts 99°
2026-05-04 09:28 51.35693 -0.41224 28714 ft 470 kts 99°
2026-05-04 09:28 51.35399 -0.36010 28888 ft 471 kts 99°
2026-05-04 09:28 51.35101 -0.30761 29043 ft 473 kts 99°
2026-05-04 09:28 51.34800 -0.25500 29218 ft 474 kts 100°
2026-05-04 09:29 51.34497 -0.20238 29454 ft 473 kts 100°
2026-05-04 09:29 51.34197 -0.15068 29718 ft 472 kts 100°
2026-05-04 09:29 51.33892 -0.09845 29940 ft 472 kts 100°
2026-05-04 09:29 51.33585 -0.04625 30121 ft 472 kts 101°
2026-05-04 09:30 51.33274 0.00602 30283 ft 472 kts 101°
2026-05-04 09:30 51.32952 0.05831 30468 ft 471 kts 102°
2026-05-04 09:30 51.32527 0.11029 30655 ft 469 kts 103°
2026-05-04 09:30 51.32031 0.16185 30825 ft 468 kts 104°
2026-05-04 09:31 51.31510 0.21316 30989 ft 468 kts 104°
2026-05-04 09:31 51.30986 0.26455 31161 ft 468 kts 104°
2026-05-04 09:31 51.30477 0.31519 31311 ft 467 kts 104°
2026-05-04 09:31 51.29969 0.36660 31490 ft 467 kts 104°
2026-05-04 09:32 51.29468 0.41801 31634 ft 467 kts 103°
2026-05-04 09:32 51.28970 0.46926 31792 ft 467 kts 103°
2026-05-04 09:34 51.25458 0.82653 32857 ft 465 kts 103°
2026-05-04 09:34 51.24948 0.87740 33004 ft 464 kts 103°
2026-05-04 09:34 51.24434 0.92840 33148 ft 464 kts 104°
2026-05-04 09:34 51.23919 0.97931 33298 ft 463 kts 104°
2026-05-04 09:35 51.23403 1.03004 33444 ft 463 kts 104°
2026-05-04 09:35 51.22886 1.08068 33559 ft 463 kts 104°
2026-05-04 09:35 51.22366 1.13136 33678 ft 462 kts 104°
2026-05-04 09:35 51.21851 1.18133 33796 ft 462 kts 104°
2026-05-04 09:37 51.18138 1.53552 34434 ft 462 kts 104°
2026-05-04 09:37 51.17607 1.58540 34507 ft 462 kts 104°
2026-05-04 09:38 51.16522 1.68646 34666 ft 462 kts 104°
2026-05-04 09:38 51.15429 1.78742 34802 ft 462 kts 104°
2026-05-04 09:39 51.14330 1.88827 34985 ft 460 kts 104°
2026-05-04 09:39 51.13225 1.98877 35013 ft 461 kts 104°
2026-05-04 09:40 51.12469 2.09062 35016 ft 466 kts 99°
2026-05-04 09:40 51.12014 2.19303 35013 ft 467 kts 99°
2026-05-04 09:42 51.09746 2.60620 35009 ft 468 kts 103°
2026-05-04 09:43 51.07928 2.70359 35009 ft 453 kts 122°
2026-05-04 09:43 51.04947 2.79144 35009 ft 451 kts 124°
2026-05-04 09:44 51.01963 2.87931 35009 ft 452 kts 124°
2026-05-04 09:46 50.90154 3.23103 34992 ft 452 kts 124°
2026-05-04 09:46 50.87182 3.31888 34989 ft 452 kts 124°
2026-05-04 09:47 50.84205 3.40656 34987 ft 452 kts 124°
2026-05-04 09:49 50.72231 3.75619 34994 ft 454 kts 124°
2026-05-04 09:51 50.61619 4.06217 35000 ft 455 kts 125°
2026-05-04 09:51 50.58555 4.14938 35009 ft 455 kts 125°
2026-05-04 09:52 50.55479 4.23647 35014 ft 455 kts 125°
2026-05-04 09:52 50.52412 4.32311 35025 ft 455 kts 125°
2026-05-04 09:53 50.49320 4.41018 35019 ft 457 kts 125°
2026-05-04 09:53 50.46234 4.49682 35018 ft 457 kts 125°
2026-05-04 09:54 50.43116 4.58405 35016 ft 457 kts 126°
2026-05-04 09:54 50.39996 4.67108 35018 ft 457 kts 126°
2026-05-04 09:55 50.36863 4.75813 35014 ft 458 kts 126°
2026-05-04 09:55 50.33731 4.84487 35010 ft 458 kts 126°
2026-05-04 09:56 50.30609 4.93105 35019 ft 458 kts 126°
2026-05-04 09:56 50.27456 5.01777 35003 ft 459 kts 126°
2026-05-04 09:57 50.24294 5.10447 35013 ft 459 kts 126°
2026-05-04 09:57 50.21124 5.19112 35010 ft 459 kts 126°
2026-05-04 09:58 50.17942 5.27781 35009 ft 459 kts 126°
2026-05-04 09:58 50.14755 5.36437 35010 ft 459 kts 126°
2026-05-04 10:00 50.02350 5.71162 35018 ft 458 kts 125°
2026-05-04 10:04 49.80522 6.31237 35013 ft 455 kts 126°
2026-05-04 10:04 49.77408 6.39696 35016 ft 455 kts 126°
2026-05-04 10:05 49.74266 6.48209 35023 ft 455 kts 126°
2026-05-04 10:05 49.71066 6.56686 35008 ft 455 kts 127°
2026-05-04 10:06 49.67730 6.64962 35010 ft 455 kts 128°
2026-05-04 10:06 49.64356 6.73248 35010 ft 456 kts 128°
2026-05-04 10:08 49.53134 7.00940 35017 ft 458 kts 128°
2026-05-04 10:08 49.49202 7.10596 35014 ft 458 kts 128°
2026-05-04 10:09 49.46361 7.17551 35017 ft 458 kts 128°
2026-05-04 10:09 49.42989 7.25779 35013 ft 457 kts 128°
2026-05-04 10:10 49.39587 7.34054 35016 ft 457 kts 128°
2026-05-04 10:10 49.36186 7.42303 35019 ft 457 kts 128°